Powrót do katalogu

STARLINK-35984

AktywnyŁącznośćVLEO
NORAD 66814·PAYLOAD·🇺🇸 United States

Wystrzelony Dec 1, 2025 z Cape Canaveral Space Force Station

Loading…

Następne Przeloty (najbliższe 24 godziny)

TLE

ŚwieżeSource: CelesTrak SupGP

Epoka: Sep 15, 2026, 03:28 UTC

1 66814C 25278Z   26258.14493056  .00055169  00000+0  19979-2 0  2584
2 66814  42.9993 124.1383 0001269 282.9204 201.3190 15.27555506    18

Śledź STARLINK-35984 w czasie rzeczywistym z AllMySat

Download on the App Store